Weather History for Drummond Island, MI

Change the Weather History Date:

Tuesday, January 15, 2013

  Actual Average (KCIU) Record (KCIU)
Temperature  
Mean Temperature 20 °F -  
Max Temperature 27 °F 24 °F 38 °F (1983)
Min Temperature 14 °F 1 °F -29 °F (1984)
Degree Days  
Heating Degree Days 44    
Moisture  
Dew Point 15 °F    
Average Humidity 73    
Maximum Humidity 89    
Minimum Humidity 59    
Precipitation  
Precipitation 0.00 in - - ()
Sea Level Pressure  
Sea Level Pressure 30.20 in    
Wind  
Wind Speed 9 mph (SW)    
Max Wind Speed 18 mph    
Max Gust Speed 29 mph    
Visibility 9 miles    
Events Snow    
Averages and records for this station are not official NWS values.
T = Trace of Precipitation, MM = Missing Value Source: NWS Daily Summary

Daily Weather History Graph

Daily Weather History Graph

Search for Another Location

Airport:

Trip Planner

Search our weather history database for the weather conditions in past years. The results will help you decide how hot, cold, wet, or windy it might be!

Date:

Astronomy

Jan. 15, 2013 Rise Set
Actual Time 8:12 AM EST 5:16 PM EST
Civil Twilight 7:39 AM EST 5:50 PM EST
Nautical Twilight 7:02 AM EST 6:27 PM EST
Astronomical Twilight 6:26 AM EST 7:02 PM EST
Moon 10:01 AM EST (1/15) 10:24 PM EST (1/15)
Length of Visible Light 10h 10m
Length of Day
9h 03m
Waxing Crescent, 19% of the Moon is Illuminated
Jan 15
Waxing Crescent
Jan 18
First Quarter
Jan 26
Full
Feb 3
Last Quarter
Feb 10
New

Hourly Weather History & Observations

Time (EST) Temp. Windchill Dew Point Humidity Pressure Visibility Wind Dir Wind Speed Gust Speed Precip Events Conditions
12:15 AM 23.9 °F 13.5 °F 21.0 °F 89% 30.24 in 2.0 mi SW 10.4 mph 18.4 mph N/A Snow Light Snow
12:36 AM 23.9 °F 12.9 °F 21.0 °F 89% 30.24 in 3.0 mi SW 11.5 mph 20.7 mph N/A Snow Light Snow
12:55 AM 23.9 °F 15.8 °F 20.8 °F 88% 30.24 in 5.0 mi WSW 6.9 mph - N/A Snow Light Snow
1:15 AM 23.9 °F 13.5 °F 21.0 °F 89% 30.24 in 1.8 mi WSW 10.4 mph 16.1 mph N/A Snow Light Snow
1:36 AM 23.0 °F 13.9 °F 18.7 °F 84% 30.24 in 10.0 mi West 8.1 mph - N/A   Overcast
1:55 AM 22.1 °F 14.7 °F 16.5 °F 79% 30.25 in 10.0 mi West 5.8 mph 17.3 mph N/A Snow Light Snow
2:15 AM 21.4 °F 13.8 °F 15.1 °F 77% 30.25 in 10.0 mi West 5.8 mph - N/A   Overcast
2:36 AM 21.0 °F 14.6 °F 14.9 °F 77% 30.25 in 10.0 mi West 4.6 mph - N/A   Overcast
2:55 AM 21.0 °F 14.6 °F 14.7 °F 77% 30.26 in 10.0 mi West 4.6 mph - N/A   Overcast
3:15 AM 21.0 °F 14.6 °F 14.7 °F 77% 30.26 in 10.0 mi West 4.6 mph - N/A   Overcast
3:36 AM 20.7 °F 11.0 °F 15.1 °F 79% 30.25 in 7.0 mi West 8.1 mph - N/A Snow Light Snow
3:55 AM 19.9 °F 10.1 °F 14.7 °F 80% 30.26 in 7.0 mi West 8.1 mph - N/A Snow Light Snow
4:16 AM 19.4 °F 9.5 °F 14.5 °F 81% 30.26 in 7.0 mi West 8.1 mph - N/A Snow Light Snow
4:36 AM 18.3 °F 9.1 °F 13.1 °F 80% 30.26 in 10.0 mi West 6.9 mph - N/A Snow Light Snow
4:55 AM 16.9 °F 6.4 °F 10.6 °F 76% 30.25 in 10.0 mi West 8.1 mph - N/A   Scattered Clouds
5:16 AM 15.8 °F 8.6 °F 9.1 °F 75% 30.25 in 10.0 mi West 4.6 mph 18.4 mph N/A   Clear
5:55 AM 14.9 °F 5.0 °F 7.9 °F 74% 30.27 in 10.0 mi WSW 6.9 mph - N/A   Clear
6:16 AM 14.9 °F 6.1 °F 8.1 °F 74% 30.27 in 10.0 mi West 5.8 mph - N/A   Clear
6:35 AM 15.1 °F 5.2 °F 8.6 °F 76% 30.28 in 10.0 mi West 6.9 mph - N/A   Scattered Clouds
6:55 AM 15.8 °F 6.1 °F 9.1 °F 75% 30.28 in 10.0 mi WSW 6.9 mph - N/A   Overcast
7:15 AM 15.4 °F 8.1 °F 8.6 °F 74% 30.28 in 10.0 mi WSW 4.6 mph - N/A   Scattered Clouds
7:36 AM 15.1 °F 7.7 °F 8.6 °F 76% 30.29 in 10.0 mi WSW 4.6 mph - N/A   Clear
7:55 AM 14.9 °F 7.5 °F 8.6 °F 76% 30.29 in 10.0 mi WSW 4.6 mph - N/A   Clear
8:15 AM 14.9 °F 5.0 °F 8.2 °F 75% 30.30 in 10.0 mi WSW 6.9 mph - N/A   Clear
8:36 AM 15.3 °F 9.6 °F 8.4 °F 74% 30.30 in 10.0 mi West 3.5 mph - N/A   Clear
8:55 AM 15.8 °F 10.2 °F 8.6 °F 73% 30.30 in 10.0 mi WSW 3.5 mph - N/A   Clear
9:16 AM 17.4 °F 10.4 °F 10.4 °F 74% 30.30 in 10.0 mi WSW 4.6 mph - N/A   Clear
9:36 AM 18.5 °F 11.7 °F 11.1 °F 73% 30.31 in 10.0 mi SW 4.6 mph - N/A   Clear
9:55 AM 19.4 °F 12.8 °F 11.1 °F 70% 30.31 in 10.0 mi SW 4.6 mph - N/A   Clear
10:16 AM 21.0 °F 13.4 °F 12.7 °F 70% 30.30 in 10.0 mi SW 5.8 mph - N/A   Clear
10:35 AM 22.1 °F 14.7 °F 13.1 °F 68% 30.30 in 10.0 mi WSW 5.8 mph - N/A   Clear
10:55 AM 22.8 °F 15.5 °F 14.0 °F 69% 30.29 in 10.0 mi SW 5.8 mph - N/A   Clear
11:16 AM 23.5 °F 15.4 °F 13.8 °F 66% 30.28 in 10.0 mi SW 6.9 mph - N/A   Mostly Cloudy
11:35 AM 23.9 °F 15.8 °F 14.2 °F 66% 30.28 in 10.0 mi SW 6.9 mph - N/A   Mostly Cloudy
11:55 AM 23.9 °F 12.9 °F 13.6 °F 65% 30.27 in 10.0 mi WSW 11.5 mph 18.4 mph N/A   Mostly Cloudy
12:16 PM 23.9 °F 12.9 °F 12.2 °F 61% 30.26 in 10.0 mi SSW 11.5 mph 16.1 mph N/A   Scattered Clouds
12:35 PM 24.3 °F 15.4 °F 11.8 °F 59% 30.25 in 10.0 mi WSW 8.1 mph 17.3 mph N/A   Clear
12:55 PM 24.4 °F 14.2 °F 14.5 °F 66% 30.24 in 10.0 mi SW 10.4 mph - N/A   Clear
1:15 PM 24.1 °F 13.1 °F 14.9 °F 68% 30.23 in 10.0 mi SW 11.5 mph 19.6 mph N/A   Clear
1:35 PM 24.4 °F 13.0 °F 15.1 °F 68% 30.23 in 10.0 mi SSW 12.7 mph 19.6 mph N/A   Scattered Clouds
1:55 PM 23.9 °F 12.3 °F 15.8 °F 71% 30.22 in 10.0 mi SW 12.7 mph 16.1 mph N/A   Mostly Cloudy
2:15 PM 24.4 °F 14.9 °F 15.6 °F 69% 30.21 in 10.0 mi South 9.2 mph - N/A   Overcast
2:36 PM 24.8 °F 15.3 °F 15.8 °F 69% 30.20 in 10.0 mi SSW 9.2 mph - N/A   Overcast
2:55 PM 25.5 °F 15.5 °F 15.1 °F 65% 30.20 in 10.0 mi SW 10.4 mph 18.4 mph N/A   Overcast
3:15 PM 25.7 °F 16.4 °F 14.9 °F 64% 30.20 in 10.0 mi SSW 9.2 mph 18.4 mph N/A   Overcast
3:36 PM 25.7 °F 15.7 °F 15.3 °F 65% 30.20 in 10.0 mi SW 10.4 mph 16.1 mph N/A   Overcast
3:55 PM 25.7 °F 15.1 °F 15.3 °F 65% 30.19 in 10.0 mi SSW 11.5 mph 17.3 mph N/A   Overcast
4:16 PM 26.1 °F 14.5 °F 15.6 °F 65% 30.18 in 10.0 mi SSW 13.8 mph 23.0 mph N/A   Overcast
4:36 PM 26.2 °F 15.2 °F 15.8 °F 65% 30.16 in 10.0 mi SSW 12.7 mph 23.0 mph N/A   Overcast
4:55 PM 26.2 °F 15.2 °F 16.3 °F 66% 30.16 in 10.0 mi SSW 12.7 mph 19.6 mph N/A   Overcast
5:16 PM 26.2 °F 15.8 °F 16.5 °F 67% 30.16 in 10.0 mi SSW 11.5 mph 19.6 mph N/A   Overcast
5:36 PM 26.6 °F 15.2 °F 16.7 °F 66% 30.15 in 10.0 mi SSW 13.8 mph 20.7 mph N/A   Overcast
5:55 PM 26.6 °F 14.7 °F 17.1 °F 67% 30.15 in 10.0 mi SSW 15.0 mph 23.0 mph N/A   Overcast
6:16 PM 26.4 °F 15.5 °F 17.6 °F 69% 30.14 in 10.0 mi SSW 12.7 mph 19.6 mph N/A Snow Light Snow
6:35 PM 26.6 °F 14.7 °F 17.8 °F 69% 30.13 in 10.0 mi SSW 15.0 mph 25.3 mph N/A   Overcast
6:55 PM 26.8 °F 14.5 °F 17.8 °F 69% 30.13 in 10.0 mi SSW 16.1 mph 25.3 mph N/A   Overcast
7:15 PM 26.6 °F 13.8 °F 18.0 °F 70% 30.13 in 10.0 mi SSW 17.3 mph 21.9 mph N/A   Overcast
7:35 PM 26.6 °F 15.2 °F 18.3 °F 71% 30.12 in 10.0 mi SSW 13.8 mph 28.8 mph N/A Snow Light Snow
7:56 PM 26.6 °F 14.3 °F 18.7 °F 72% 30.11 in 10.0 mi SSW 16.1 mph 24.2 mph N/A Snow Light Snow
8:15 PM 26.6 °F 15.7 °F 19.4 °F 74% 30.11 in 7.0 mi SW 12.7 mph 27.6 mph N/A Snow Light Snow
8:36 PM 26.8 °F 13.7 °F 20.1 °F 76% 30.09 in 7.0 mi SSW 18.4 mph 24.2 mph N/A Snow Light Snow
8:55 PM 27.0 °F 15.6 °F 20.1 °F 75% 30.08 in 10.0 mi SW 13.8 mph 20.7 mph N/A   Overcast
9:15 PM 27.1 °F 14.9 °F 20.1 °F 75% 30.07 in 10.0 mi SW 16.1 mph 25.3 mph N/A   Overcast
9:36 PM 27.5 °F 17.4 °F 20.1 °F 74% 30.06 in 10.0 mi SW 11.5 mph 20.7 mph N/A   Overcast
9:55 PM 27.5 °F 15.4 °F 20.3 °F 74% 30.05 in 10.0 mi SW 16.1 mph 25.3 mph N/A   Overcast
10:15 PM 27.5 °F 16.3 °F 20.8 °F 76% 30.05 in 10.0 mi SW 13.8 mph 21.9 mph N/A   Overcast
10:36 PM 27.5 °F 16.3 °F 20.8 °F 76% 30.04 in 10.0 mi SW 13.8 mph 23.0 mph N/A Snow Light Snow
10:55 PM 27.5 °F 17.4 °F 21.2 °F 77% 30.03 in 10.0 mi SSW 11.5 mph 27.6 mph N/A Snow Light Snow
11:15 PM 27.7 °F 17.6 °F 21.4 °F 77% 30.02 in 10.0 mi SW 11.5 mph 23.0 mph N/A   Overcast
11:35 PM 27.7 °F 17.1 °F 21.4 °F 77% 30.02 in 10.0 mi SSW 12.7 mph 25.3 mph N/A Snow Light Snow
11:55 PM 27.9 °F 17.3 °F 21.7 °F 78% 30.00 in 10.0 mi SSW 12.7 mph 20.7 mph N/A Snow Light Snow